This is the latest recevied weather packets stored in our database for station/object N8HKU-5. If no packets are shown the sender has not sent any weather packets the latest 10 day(s).
| Time | Temp. | Humidity | Pressure | Rain* | Wind** | Luminosity | Snow |
|---|---|---|---|---|---|---|---|
| 1778007153 | 11.11° C | 75% | 1006 hPa | 0 mm | - | - | - |
| 1778006553 | 11.11° C | 74% | 1006 hPa | 0 mm | - | - | - |
| 1778005953 | 11.11° C | 75% | 1005.8 hPa | 0 mm | - | - | - |
| 1778005353 | 11.11° C | 74% | 1005.8 hPa | 0 mm | - | - | - |
| 1778004753 | 11.11° C | 76% | 1005.7 hPa | 0 mm | - | - | - |
| 1778004153 | 11.11° C | 74% | 1005.6 hPa | 0 mm | - | - | - |
| 1778003553 | 11.67° C | 75% | 1005.3 hPa | 0.25 mm | - | - | - |
| 1778002953 | 11.67° C | 77% | 1005.3 hPa | 0.51 mm | - | - | - |
| 1778002354 | 11.11° C | 79% | 1005.3 hPa | 0.51 mm | - | - | - |
| 1778001753 | 11.11° C | 83% | 1005 hPa | 0.51 mm | - | - | - |
| 1778001153 | 10.56° C | 81% | 1005.3 hPa | 0.51 mm | - | - | - |
| 1778000553 | 10.56° C | 79% | 1005.1 hPa | 0.51 mm | - | - | - |
| 1777999953 | 11.11° C | 77% | 1005.1 hPa | 0.25 mm | - | - | - |
| 1777999354 | 11.11° C | 77% | 1005.2 hPa | 0 mm | - | - | - |
| 1777998754 | 11.67° C | 74% | 1005.2 hPa | 0 mm | - | - | - |
| 1777998153 | 12.22° C | 72% | 1005.4 hPa | 0 mm | - | - | - |
| 1777997553 | 12.22° C | 68% | 1005.4 hPa | 0 mm | - | - | - |
| 1777996953 | 13.33° C | 64% | 1005.4 hPa | 0 mm | - | - | - |
| 1777996354 | 13.89° C | 63% | 1005.2 hPa | 0 mm | - | - | - |
| 1777995754 | 13.89° C | 59% | 1004.9 hPa | 0 mm | - | - | - |
| 1777995153 | 13.89° C | 60% | 1004.3 hPa | 0 mm | - | - | - |
| 1777994553 | 13.89° C | 59% | 1004.2 hPa | 0 mm | - | - | - |
| 1777993954 | 13.89° C | 57% | 1004.3 hPa | 0 mm | - | - | - |
| 1777993353 | 14.44° C | 56% | 1004 hPa | 0 mm | - | - | - |
| 1777992754 | 14.44° C | 54% | 1003.9 hPa | 0 mm | - | - | - |
* Rain latest hour (hover to see other rain measurements)
** Current wind speed in m/s (hover to see current wind gust speed)